| time (UTC) | temp F | wind direction | speed MPH | gust MPH | rain 1hr in | rain 24hr in | rain mn in | humidity % | barometer mb |
| 20260906115536 | 73 | 65 | 0.0 | 1.0 | 0.00 | 0.00 | 0.00 | 92 | 1011.5 |
| 20260906115033 | 73 | 65 | 0.0 | 1.0 | 0.00 | 0.00 | 0.00 | 92 | 1011.5 |
| 20260906114537 | 73 | 65 | 0.0 | 1.0 | 0.00 | 0.00 | 0.00 | 92 | 1011.5 |
| 20260906114032 | 73 | 65 | 0.0 | 1.0 | 0.00 | 0.00 | 0.00 | 92 | 1011.4 |
| 20260906113532 | 73 | 65 | 0.0 | 1.0 | 0.00 | 0.00 | 0.00 | 91 | 1011.3 |
| 20260906113032 | 73 | 65 | 0.0 | 0.0 | 0.00 | 0.00 | 0.00 | 91 | 1011.3 |
| 20260906112532 | 73 | 65 | 0.0 | 0.0 | 0.00 | 0.00 | 0.00 | 91 | 1011.2 |
| 20260906112032 | 73 | 65 | 0.0 | 0.0 | 0.00 | 0.00 | 0.00 | 91 | 1011.1 |
| 20260906111533 | 73 | 65 | 0.0 | 0.0 | 0.00 | 0.00 | 0.00 | 91 | 1011.0 |
| 20260906111031 | 73 | 65 | 0.0 | 0.0 | 0.00 | 0.00 | 0.00 | 91 | 1011.0 |
| 20260906110531 | 73 | 65 | 0.0 | 0.0 | 0.00 | 0.00 | 0.00 | 91 | 1010.9 |
| 20260906110040 | 73 | 65 | 0.0 | 0.0 | 0.00 | 0.00 | 0.00 | 91 | 1010.7 |
| 20260906105530 | 73 | 65 | 0.0 | 0.0 | 0.00 | 0.00 | 0.00 | 91 | 1010.7 |
| 20260906105031 | 74 | 65 | 0.0 | 0.0 | 0.00 | 0.00 | 0.00 | 91 | 1010.6 |
| 20260906104530 | 74 | 65 | 0.0 | 0.0 | 0.00 | 0.00 | 0.00 | 91 | 1010.7 |
| 20260906104030 | 74 | 65 | 0.0 | 0.0 | 0.00 | 0.00 | 0.00 | 91 | 1010.7 |
| 20260906103531 | 74 | 65 | 0.0 | 0.0 | 0.00 | 0.00 | 0.00 | 92 | 1010.7 |
| 20260906103030 | 74 | 65 | 0.0 | 0.0 | 0.00 | 0.00 | 0.00 | 92 | 1010.7 |
| 20260906102529 | 74 | 65 | 0.0 | 0.0 | 0.00 | 0.00 | 0.00 | 92 | 1010.8 |
| 20260906102030 | 74 | 65 | 0.0 | 2.0 | 0.00 | 0.00 | 0.00 | 92 | 1010.8 |
| 20260906101529 | 73 | 65 | 0.0 | 2.0 | 0.00 | 0.00 | 0.00 | 92 | 1010.9 |
| 20260906101028 | 74 | 65 | 0.0 | 1.0 | 0.00 | 0.00 | 0.00 | 92 | 1010.9 |
| 20260906100528 | 74 | 65 | 0.0 | 0.0 | 0.00 | 0.00 | 0.00 | 92 | 1010.8 |
| 20260906100027 | 74 | 65 | 0.0 | 0.0 | 0.00 | 0.00 | 0.00 | 92 | 1010.8 |
| 20260906095529 | 74 | 65 | 0.0 | 0.0 | 0.00 | 0.00 | 0.00 | 92 | 1010.8 |
| 20260906095027 | 74 | 65 | 0.0 | 0.0 | 0.00 | 0.00 | 0.00 | 92 | 1010.8 |
| 20260906094537 | 74 | 65 | 0.0 | 0.0 | 0.00 | 0.00 | 0.00 | 92 | 1010.7 |
| 20260906094026 | 74 | 65 | 0.0 | 1.0 | 0.00 | 0.00 | 0.00 | 92 | 1010.8 |
| 20260906093526 | 74 | 65 | 0.0 | 1.0 | 0.00 | 0.00 | 0.00 | 92 | 1010.8 |
| 20260906093031 | 74 | 65 | 0.0 | 0.0 | 0.00 | 0.00 | 0.00 | 92 | 1010.7 |
| 20260906092526 | 74 | 65 | 0.0 | 0.0 | 0.00 | 0.00 | 0.00 | 92 | 1010.6 |
| 20260906092028 | 74 | 65 | 0.0 | 0.0 | 0.00 | 0.00 | 0.00 | 92 | 1010.6 |
| 20260906091525 | 74 | 65 | 0.0 | 0.0 | 0.00 | 0.00 | 0.00 | 92 | 1010.8 |
| 20260906091024 | 74 | 65 | 0.0 | 1.0 | 0.00 | 0.00 | 0.00 | 92 | 1010.9 |
| 20260906090526 | 74 | 65 | 0.0 | 1.0 | 0.00 | 0.00 | 0.00 | 92 | 1011.1 |
| 20260906090026 | 74 | 65 | 0.0 | 2.0 | 0.00 | 0.00 | 0.00 | 92 | 1011.0 |
| 20260906085525 | 74 | 65 | 0.0 | 2.0 | 0.00 | 0.00 | 0.00 | 92 | 1011.1 |
| 20260906085023 | 74 | 65 | 0.0 | 1.0 | 0.00 | 0.00 | 0.00 | 92 | 1011.2 |
| 20260906084533 | 74 | 65 | 0.0 | 1.0 | 0.00 | 0.00 | 0.00 | 92 | 1011.4 |
| 20260906084023 | 74 | 65 | 0.0 | 1.0 | 0.00 | 0.00 | 0.00 | 92 | 1011.3 |
| 20260906083526 | 74 | 65 | 0.0 | 1.0 | 0.00 | 0.00 | 0.00 | 92 | 1011.4 |
| 20260906083023 | 74 | 65 | 0.0 | 2.0 | 0.00 | 0.00 | 0.00 | 92 | 1011.5 |
| 20260906082522 | 74 | 65 | 0.0 | 2.0 | 0.00 | 0.00 | 0.00 | 92 | 1011.4 |
| 20260906082027 | 74 | 63 | 0.0 | 1.0 | 0.00 | 0.00 | 0.00 | 92 | 1011.5 |
| 20260906081539 | 74 | 63 | 0.0 | 1.0 | 0.00 | 0.00 | 0.00 | 92 | 1011.5 |
| 20260906081022 | 74 | 63 | 0.0 | 1.0 | 0.00 | 0.00 | 0.00 | 92 | 1011.4 |
| 20260906080525 | 74 | 63 | 0.0 | 1.0 | 0.00 | 0.00 | 0.00 | 92 | 1011.5 |
| 20260906080022 | 74 | 63 | 0.0 | 0.0 | 0.00 | 0.00 | 0.00 | 92 | 1011.4 |
| 20260906075521 | 74 | 63 | 0.0 | 0.0 | 0.00 | 0.00 | 0.00 | 92 | 1011.2 |
| 20260906075024 | 74 | 63 | 0.0 | 1.0 | 0.00 | 0.00 | 0.00 | 93 | 1011.2 |
| 20260906074521 | 74 | 63 | 0.0 | 1.0 | 0.00 | 0.00 | 0.00 | 93 | 1011.1 |
| 20260906074020 | 74 | 63 | 0.0 | 0.0 | 0.00 | 0.00 | 0.00 | 93 | 1011.1 |
| 20260906073521 | 74 | 63 | 0.0 | 1.0 | 0.00 | 0.00 | 0.00 | 93 | 1010.9 |
| 20260906073020 | 74 | 63 | 0.0 | 2.0 | 0.00 | 0.00 | 0.00 | 93 | 1010.9 |
| 20260906072519 | 74 | 108 | 1.0 | 2.0 | 0.00 | 0.00 | 0.00 | 94 | 1010.7 |
| 20260906072018 | 74 | 97 | 0.0 | 2.0 | 0.00 | 0.00 | 0.00 | 94 | 1010.8 |
| 20260906071518 | 73 | 104 | 1.0 | 2.0 | 0.00 | 0.00 | 0.00 | 94 | 1010.7 |
| 20260906071018 | 73 | 227 | 0.0 | 2.0 | 0.00 | 0.00 | 0.00 | 94 | 1010.9 |
| 20260906070524 | 73 | 286 | 0.0 | 3.0 | 0.00 | 0.00 | 0.00 | 94 | 1011.1 |
| 20260906070018 | 73 | 293 | 0.0 | 2.0 | 0.00 | 0.00 | 0.00 | 94 | 1011.1 |
| 20260906065517 | 73 | 78 | 0.0 | 0.0 | 0.00 | 0.00 | 0.00 | 93 | 1010.7 |
| 20260906065017 | 73 | 78 | 0.0 | 0.0 | 0.00 | 0.00 | 0.00 | 93 | 1010.7 |
| 20260906064515 | 72 | 78 | 0.0 | 1.0 | 0.00 | 0.00 | 0.00 | 93 | 1010.9 |
| 20260906064014 | 72 | 78 | 0.0 | 1.0 | 0.00 | 0.00 | 0.00 | 93 | 1011.1 |
| 20260906063514 | 73 | 61 | 0.0 | 1.0 | 0.00 | 0.00 | 0.00 | 93 | 1011.3 |
| 20260906063015 | 73 | 59 | 0.0 | 2.0 | 0.00 | 0.00 | 0.00 | 93 | 1011.3 |
| 20260906062518 | 73 | 111 | 0.0 | 2.0 | 0.00 | 0.00 | 0.00 | 93 | 1011.3 |
| 20260906062014 | 73 | 78 | 0.0 | 1.0 | 0.00 | 0.00 | 0.00 | 93 | 1011.2 |
| 20260906061516 | 73 | 78 | 0.0 | 1.0 | 0.00 | 0.00 | 0.00 | 93 | 1011.3 |
| 20260906061013 | 73 | 78 | 0.0 | 0.0 | 0.00 | 0.00 | 0.00 | 93 | 1011.3 |
| 20260906060513 | 73 | 78 | 0.0 | 0.0 | 0.00 | 0.00 | 0.00 | 93 | 1011.2 |
| 20260906060013 | 73 | 78 | 0.0 | 0.0 | 0.00 | 0.00 | 0.00 | 93 | 1011.1 |
| 20260906055514 | 73 | 78 | 0.0 | 0.0 | 0.00 | 0.00 | 0.00 | 93 | 1011.1 |
| 20260906055013 | 73 | 78 | 0.0 | 1.0 | 0.00 | 0.00 | 0.00 | 92 | 1011.1 |
| 20260906054512 | 73 | 78 | 0.0 | 1.0 | 0.00 | 0.00 | 0.00 | 92 | 1011.1 |
| 20260906054012 | 73 | 78 | 0.0 | 2.0 | 0.00 | 0.00 | 0.00 | 92 | 1011.1 |
| 20260906053511 | 73 | 78 | 0.0 | 2.0 | 0.00 | 0.00 | 0.00 | 92 | 1011.1 |
| 20260906053016 | 73 | 36 | 0.0 | 0.0 | 0.00 | 0.00 | 0.00 | 92 | 1011.0 |
| 20260906052511 | 73 | 36 | 0.0 | 0.0 | 0.00 | 0.00 | 0.00 | 91 | 1011.0 |
| 20260906052011 | 73 | 36 | 0.0 | 0.0 | 0.00 | 0.00 | 0.00 | 91 | 1011.1 |
| 20260906051510 | 73 | 36 | 0.0 | 0.0 | 0.00 | 0.00 | 0.00 | 91 | 1011.1 |
| 20260906051010 | 73 | 36 | 0.0 | 0.0 | 0.00 | 0.00 | 0.00 | 91 | 1011.1 |
| 20260906050509 | 73 | 36 | 0.0 | 0.0 | 0.00 | 0.00 | 0.00 | 91 | 1011.1 |
| 20260906050009 | 73 | 36 | 0.0 | 0.0 | 0.00 | 0.00 | 0.00 | 91 | 1011.3 |
| 20260906045509 | 73 | 36 | 0.0 | 0.0 | 0.00 | 0.00 | 0.00 | 91 | 1011.2 |
| 20260906045007 | 73 | 36 | 0.0 | 0.0 | 0.00 | 0.00 | 0.00 | 91 | 1011.2 |
| 20260906044506 | 73 | 36 | 0.0 | 1.0 | 0.00 | 0.00 | 0.00 | 91 | 1011.3 |
| 20260906044007 | 73 | 36 | 0.0 | 1.0 | 0.00 | 0.00 | 0.00 | 91 | 1011.5 |
| 20260906043509 | 73 | 36 | 0.0 | 1.0 | 0.00 | 0.00 | 0.00 | 91 | 1011.5 |
| 20260906043005 | 73 | 36 | 0.0 | 0.0 | 0.00 | 0.00 | 0.00 | 91 | 1011.5 |
| 20260906042503 | 73 | 36 | 0.0 | 0.0 | 0.00 | 0.00 | 0.00 | 91 | 1011.5 |
| 20260906042003 | 73 | 36 | 0.0 | 0.0 | 0.00 | 0.00 | 0.00 | 90 | 1011.8 |
| 20260906041502 | 73 | 36 | 0.0 | 0.0 | 0.00 | 0.00 | 0.00 | 90 | 1011.7 |
| 20260906041002 | 73 | 36 | 0.0 | 0.0 | 0.00 | 0.00 | 0.00 | 90 | 1011.7 |
| 20260906040501 | 73 | 36 | 0.0 | 0.0 | 0.00 | 0.00 | 0.00 | 90 | 1011.7 |
| 20260906040004 | 73 | 36 | 0.0 | 0.0 | 0.00 | 0.00 | 0.00 | 90 | 1011.7 |
| 20260906035500 | 73 | 36 | 0.0 | 0.0 | 0.00 | 0.00 | 0.00 | 90 | 1011.4 |
| 20260906035104 | 74 | 36 | 0.0 | 0.0 | 0.00 | 0.00 | 0.00 | 89 | 1011.5 |
| 20260906034605 | 74 | 36 | 0.0 | 0.0 | 0.00 | 0.00 | 0.00 | 90 | 1011.5 |
| 20260906034101 | 74 | 36 | 0.0 | 0.0 | 0.00 | 0.00 | 0.00 | 90 | 1011.5 |
| 20260906033600 | 74 | 36 | 0.0 | 1.0 | 0.00 | 0.00 | 0.00 | 90 | 1011.6 |
| 20260906033100 | 74 | 36 | 0.0 | 1.0 | 0.00 | 0.00 | 0.00 | 90 | 1011.5 |
| 20260906032559 | 74 | 36 | 0.0 | 0.0 | 0.00 | 0.00 | 0.00 | 90 | 1011.6 |
| 20260906032100 | 74 | 36 | 0.0 | 1.0 | 0.00 | 0.00 | 0.00 | 90 | 1011.7 |
| 20260906031603 | 74 | 36 | 0.0 | 1.0 | 0.00 | 0.00 | 0.00 | 91 | 1011.6 |
| 20260906031102 | 74 | 36 | 0.0 | 1.0 | 0.00 | 0.00 | 0.00 | 92 | 1011.7 |
| 20260906030559 | 74 | 36 | 0.0 | 1.0 | 0.00 | 0.00 | 0.00 | 92 | 1011.7 |
| 20260906030059 | 74 | 36 | 0.0 | 1.0 | 0.00 | 0.00 | 0.00 | 91 | 1011.8 |
| 20260906025559 | 74 | 36 | 0.0 | 1.0 | 0.00 | 0.00 | 0.00 | 90 | 1011.8 |
| 20260906025059 | 75 | 36 | 0.0 | 1.0 | 0.00 | 0.00 | 0.00 | 90 | 1011.5 |
| 20260906024602 | 75 | 36 | 0.0 | 0.0 | 0.00 | 0.00 | 0.00 | 89 | 1011.2 |
| 20260906024058 | 75 | 36 | 0.0 | 0.0 | 0.00 | 0.00 | 0.00 | 90 | 1011.2 |
| 20260906023559 | 75 | 36 | 0.0 | 0.0 | 0.00 | 0.00 | 0.00 | 90 | 1010.9 |
| 20260906023058 | 75 | 36 | 0.0 | 0.0 | 0.00 | 0.00 | 0.00 | 89 | 1010.9 |
| 20260906022600 | 75 | 36 | 0.0 | 0.0 | 0.00 | 0.00 | 0.00 | 89 | 1010.9 |
| 20260906022100 | 75 | 36 | 0.0 | 0.0 | 0.00 | 0.00 | 0.00 | 89 | 1010.9 |
| 20260906021605 | 75 | 36 | 0.0 | 0.0 | 0.00 | 0.00 | 0.00 | 90 | 1010.9 |
| 20260906021058 | 75 | 36 | 0.0 | 0.0 | 0.00 | 0.00 | 0.00 | 90 | 1010.9 |
| 20260906020557 | 75 | 36 | 0.0 | 0.0 | 0.00 | 0.00 | 0.00 | 90 | 1010.8 |
| 20260906015557 | 75 | 36 | 0.0 | 0.0 | 0.00 | 0.00 | 0.00 | 89 | 1010.7 |
| 20260906015057 | 76 | 36 | 0.0 | 0.0 | 0.00 | 0.00 | 0.00 | 89 | 1010.7 |
| 20260906014600 | 76 | 36 | 0.0 | 0.0 | 0.00 | 0.00 | 0.00 | 89 | 1010.6 |
| 20260906014059 | 76 | 36 | 0.0 | 0.0 | 0.00 | 0.00 | 0.00 | 88 | 1010.7 |
| 20260906013556 | 76 | 36 | 0.0 | 0.0 | 0.00 | 0.00 | 0.00 | 88 | 1010.6 |
| 20260906013056 | 76 | 36 | 0.0 | 0.0 | 0.00 | 0.00 | 0.00 | 88 | 1010.5 |
| 20260906012559 | 77 | 36 | 0.0 | 0.0 | 0.00 | 0.00 | 0.00 | 88 | 1010.5 |
| 20260906012055 | 77 | 36 | 0.0 | 0.0 | 0.00 | 0.00 | 0.00 | 87 | 1010.4 |
| 20260906011558 | 77 | 36 | 0.0 | 0.0 | 0.00 | 0.00 | 0.00 | 87 | 1010.4 |
| 20260906011058 | 77 | 36 | 0.0 | 0.0 | 0.00 | 0.00 | 0.00 | 87 | 1010.5 |
| 20260906010554 | 77 | 36 | 0.0 | 0.0 | 0.00 | 0.00 | 0.00 | 87 | 1010.5 |
| 20260906010105 | 77 | 36 | 0.0 | 0.0 | 0.00 | 0.00 | 0.00 | 87 | 1010.3 |
| 20260906005554 | 77 | 36 | 0.0 | 1.0 | 0.00 | 0.00 | 0.00 | 86 | 1010.2 |
| 20260906005054 | 77 | 36 | 0.0 | 1.0 | 0.00 | 0.00 | 0.00 | 86 | 1010.2 |
| 20260906004557 | 77 | 36 | 0.0 | 0.0 | 0.00 | 0.00 | 0.00 | 87 | 1010.3 |
| 20260906004054 | 77 | 36 | 0.0 | 1.0 | 0.00 | 0.00 | 0.00 | 86 | 1010.2 |
| 20260906003554 | 78 | 36 | 0.0 | 1.0 | 0.00 | 0.00 | 0.00 | 85 | 1010.2 |
| 20260906003054 | 78 | 5 | 0.0 | 0.0 | 0.00 | 0.00 | 0.00 | 84 | 1010.1 |
| 20260906002553 | 79 | 5 | 0.0 | 0.0 | 0.00 | 0.00 | 0.00 | 83 | 1010.0 |
| 20260906002054 | 79 | 5 | 0.0 | 0.0 | 0.00 | 0.00 | 0.00 | 83 | 1010.1 |
| 20260906001605 | 79 | 5 | 0.0 | 0.0 | 0.00 | 0.00 | 0.00 | 83 | 1010.2 |
| 20260906001052 | 80 | 5 | 0.0 | 0.0 | 0.00 | 0.00 | 0.00 | 82 | 1009.9 |
| 20260906000556 | 80 | 5 | 0.0 | 0.0 | 0.00 | 0.00 | 0.00 | 81 | 1010.1 |
| 20260906000053 | 80 | 5 | 0.0 | 0.0 | 0.00 | 0.00 | 0.00 | 81 | 1010.2 |
| 20260905235552 | 80 | 5 | 0.0 | 1.0 | 0.00 | 0.00 | 0.00 | 80 | 1010.3 |
| 20260905235052 | 80 | 5 | 0.0 | 1.0 | 0.00 | 0.00 | 0.00 | 80 | 1010.2 |
| 20260905234552 | 80 | 5 | 0.0 | 1.0 | 0.00 | 0.00 | 0.00 | 79 | 1010.2 |
| 20260905234051 | 81 | 5 | 0.0 | 0.0 | 0.00 | 0.00 | 0.00 | 79 | 1010.3 |
| 20260905233552 | 81 | 5 | 0.0 | 0.0 | 0.00 | 0.00 | 0.00 | 78 | 1010.3 |
| 20260905233100 | 81 | 5 | 0.0 | 1.0 | 0.00 | 0.00 | 0.00 | 78 | 1010.2 |
| 20260905232551 | 81 | 5 | 0.0 | 1.0 | 0.00 | 0.00 | 0.00 | 78 | 1010.1 |
| 20260905232051 | 82 | 5 | 0.0 | 1.0 | 0.00 | 0.00 | 0.00 | 77 | 1010.0 |
| 20260905231552 | 82 | 5 | 0.0 | 1.0 | 0.00 | 0.00 | 0.00 | 78 | 1009.9 |
| 20260905231052 | 82 | 5 | 0.0 | 1.0 | 0.00 | 0.00 | 0.00 | 78 | 1009.9 |
| 20260905230551 | 82 | 5 | 0.0 | 0.0 | 0.00 | 0.00 | 0.00 | 77 | 1009.8 |
| 20260905230053 | 82 | 5 | 0.0 | 1.0 | 0.00 | 0.00 | 0.00 | 77 | 1009.9 |
| 20260905225551 | 82 | 5 | 0.0 | 1.0 | 0.00 | 0.00 | 0.00 | 77 | 1010.0 |
| 20260905225048 | 82 | 5 | 0.0 | 2.0 | 0.00 | 0.00 | 0.00 | 77 | 1009.8 |
| 20260905224558 | 83 | 5 | 0.0 | 2.0 | 0.00 | 0.00 | 0.00 | 76 | 1009.7 |
| 20260905224047 | 83 | 94 | 1.0 | 2.0 | 0.00 | 0.00 | 0.00 | 71 | 1009.7 |
| 20260905223547 | 82 | 190 | 0.0 | 0.0 | 0.00 | 0.00 | 0.00 | 75 | 1009.9 |
| 20260905223047 | 82 | 190 | 0.0 | 0.0 | 0.00 | 0.00 | 0.00 | 75 | 1010.0 |
| 20260905222546 | 82 | 190 | 0.0 | 0.0 | 0.00 | 0.00 | 0.00 | 75 | 1010.0 |
| 20260905222044 | 82 | 190 | 0.0 | 0.0 | 0.00 | 0.00 | 0.00 | 74 | 1010.2 |
| 20260905221548 | 82 | 190 | 0.0 | 1.0 | 0.00 | 0.00 | 0.00 | 72 | 1010.3 |
| 20260905221044 | 82 | 190 | 0.0 | 2.0 | 0.00 | 0.00 | 0.00 | 73 | 1010.3 |
| 20260905220547 | 82 | 190 | 0.0 | 2.0 | 0.00 | 0.00 | 0.00 | 73 | 1010.2 |
| 20260905220043 | 82 | 190 | 0.0 | 2.0 | 0.00 | 0.00 | 0.00 | 73 | 1010.4 |
| 20260905215543 | 83 | 190 | 0.0 | 2.0 | 0.00 | 0.00 | 0.00 | 73 | 1010.5 |
| 20260905215043 | 83 | 190 | 0.0 | 2.0 | 0.00 | 0.00 | 0.00 | 73 | 1010.5 |
| 20260905214543 | 83 | 190 | 0.0 | 2.0 | 0.00 | 0.00 | 0.00 | 70 | 1010.6 |
| 20260905214043 | 84 | 9 | 0.0 | 2.0 | 0.00 | 0.00 | 0.00 | 69 | 1010.5 |
| 20260905213543 | 84 | 9 | 0.0 | 2.0 | 0.00 | 0.00 | 0.00 | 70 | 1010.7 |
| 20260905213042 | 84 | 5 | 0.0 | 3.0 | 0.00 | 0.00 | 0.00 | 70 | 1010.6 |
| 20260905212542 | 84 | 136 | 1.0 | 3.0 | 0.00 | 0.00 | 0.00 | 68 | 1010.4 |
| 20260905212043 | 84 | 110 | 1.0 | 3.0 | 0.00 | 0.00 | 0.00 | 68 | 1010.6 |
| 20260905211546 | 83 | 5 | 1.0 | 3.0 | 0.00 | 0.00 | 0.00 | 70 | 1010.7 |
| 20260905211041 | 83 | 5 | 0.0 | 3.0 | 0.00 | 0.00 | 0.00 | 71 | 1010.8 |
| 20260905210543 | 83 | 109 | 0.0 | 1.0 | 0.00 | 0.00 | 0.00 | 73 | 1010.9 |
| 20260905210057 | 83 | 326 | 0.0 | 1.0 | 0.00 | 0.00 | 0.00 | 72 | 1010.6 |
| 20260905205541 | 83 | 326 | 0.0 | 1.0 | 0.00 | 0.00 | 0.00 | 72 | 1010.7 |
| 20260905205041 | 83 | 138 | 0.0 | 0.0 | 0.00 | 0.00 | 0.00 | 71 | 1010.9 |
| 20260905204541 | 83 | 5 | 0.0 | 1.0 | 0.00 | 0.00 | 0.00 | 72 | 1010.9 |
| 20260905204044 | 82 | 210 | 0.0 | 1.0 | 0.00 | 0.00 | 0.00 | 73 | 1011.0 |
| 20260905203544 | 82 | 333 | 0.0 | 0.0 | 0.00 | 0.00 | 0.00 | 72 | 1010.8 |
| 20260905203042 | 82 | 78 | 0.0 | 0.0 | 0.00 | 0.00 | 0.00 | 71 | 1011.0 |
| 20260905202541 | 82 | 348 | 0.0 | 2.0 | 0.00 | 0.00 | 0.00 | 72 | 1011.0 |
| 20260905202040 | 82 | 349 | 0.0 | 2.0 | 0.00 | 0.00 | 0.00 | 70 | 1011.1 |
| 20260905201540 | 82 | 9 | 0.0 | 2.0 | 0.00 | 0.00 | 0.00 | 69 | 1011.1 |
| 20260905201039 | 83 | 37 | 0.0 | 1.0 | 0.00 | 0.00 | 0.00 | 69 | 1011.0 |
| 20260905200539 | 83 | 9 | 0.0 | 4.0 | 0.00 | 0.00 | 0.00 | 68 | 1010.7 |
| 20260905200052 | 85 | 13 | 0.0 | 7.0 | 0.00 | 0.00 | 0.00 | 66 | 1010.9 |
| 20260905195540 | 87 | 345 | 1.0 | 7.0 | 0.00 | 0.00 | 0.00 | 61 | 1010.8 |
| 20260905195039 | 89 | 5 | 1.0 | 5.0 | 0.00 | 0.00 | 0.00 | 61 | 1010.9 |
| 20260905194539 | 92 | 46 | 1.0 | 7.0 | 0.00 | 0.00 | 0.00 | 58 | 1010.7 |
| 20260905194039 | 96 | 347 | 0.0 | 0.0 | 0.00 | 0.00 | 0.00 | 49 | 1010.7 |
| 20260905193538 | 95 | 28 | 0.0 | 0.0 | 0.00 | 0.00 | 0.00 | 48 | 1010.3 |
| 20260905193039 | 95 | 13 | 0.0 | 0.0 | 0.00 | 0.00 | 0.00 | 52 | 1010.4 |
| 20260905192538 | 95 | 80 | 0.0 | 0.0 | 0.00 | 0.00 | 0.00 | 50 | 1010.5 |
| 20260905192040 | 95 | 17 | 0.0 | 0.0 | 0.00 | 0.00 | 0.00 | 53 | 1010.4 |
| 20260905191541 | 95 | 34 | 0.0 | 0.0 | 0.00 | 0.00 | 0.00 | 51 | 1010.4 |
| 20260905191037 | 95 | 48 | 0.0 | 0.0 | 0.00 | 0.00 | 0.00 | 49 | 1010.3 |
| 20260905190536 | 96 | 347 | 0.0 | 0.0 | 0.00 | 0.00 | 0.00 | 50 | 1010.4 |
| 20260905190036 | 96 | 250 | 0.0 | 0.0 | 0.00 | 0.00 | 0.00 | 50 | 1010.5 |
| 20260905185539 | 96 | 69 | 0.0 | 0.0 | 0.00 | 0.00 | 0.00 | 52 | 1010.6 |
| 20260905185037 | 95 | 345 | 0.0 | 0.0 | 0.00 | 0.00 | 0.00 | 53 | 1010.7 |
| 20260905184537 | 95 | 246 | 0.0 | 0.0 | 0.00 | 0.00 | 0.00 | 55 | 1010.8 |
| 20260905184034 | 94 | 101 | 0.0 | 0.0 | 0.00 | 0.00 | 0.00 | 56 | 1010.7 |
| 20260905183535 | 94 | 175 | 0.0 | 0.0 | 0.00 | 0.00 | 0.00 | 56 | 1010.7 |
| 20260905183033 | 95 | 295 | 0.0 | 0.0 | 0.00 | 0.00 | 0.00 | 53 | 1010.7 |
| 20260905182533 | 95 | 316 | 0.0 | 0.0 | 0.00 | 0.00 | 0.00 | 53 | 1010.7 |
| 20260905182033 | 95 | 11 | 0.0 | 0.0 | 0.00 | 0.00 | 0.00 | 52 | 1010.8 |
| 20260905181532 | 95 | 284 | 0.0 | 0.0 | 0.00 | 0.00 | 0.00 | 55 | 1010.9 |
| 20260905181030 | 95 | 305 | 0.0 | 0.0 | 0.00 | 0.00 | 0.00 | 55 | 1011.1 |
| 20260905180529 | 94 | 134 | 0.0 | 0.0 | 0.00 | 0.00 | 0.00 | 53 | 1011.1 |
| 20260905180033 | 94 | 76 | 0.0 | 0.0 | 0.00 | 0.00 | 0.00 | 57 | 1011.1 |
| 20260905175528 | 92 | 10 | 0.0 | 0.0 | 0.00 | 0.00 | 0.00 | 62 | 1011.2 |
| 20260905175027 | 92 | 10 | 0.0 | 0.0 | 0.00 | 0.00 | 0.00 | 61 | 1011.2 |
| 20260905174527 | 92 | 10 | 0.0 | 0.0 | 0.00 | 0.00 | 0.00 | 62 | 1011.3 |
| 20260905174031 | 92 | 10 | 0.0 | 0.0 | 0.00 | 0.00 | 0.00 | 59 | 1011.3 |
| 20260905173526 | 92 | 147 | 0.0 | 0.0 | 0.00 | 0.00 | 0.00 | 60 | 1011.3 |
| 20260905173025 | 94 | 147 | 0.0 | 0.0 | 0.00 | 0.00 | 0.00 | 56 | 1011.4 |
| 20260905172524 | 95 | 304 | 0.0 | 0.0 | 0.00 | 0.00 | 0.00 | 56 | 1011.5 |
| 20260905172023 | 94 | 82 | 0.0 | 0.0 | 0.00 | 0.00 | 0.00 | 57 | 1011.6 |
| 20260905171537 | 94 | 96 | 0.0 | 0.0 | 0.00 | 0.00 | 0.00 | 58 | 1011.6 |
| 20260905171021 | 94 | 59 | 0.0 | 0.0 | 0.00 | 0.00 | 0.00 | 58 | 1011.7 |
| 20260905170521 | 94 | 5 | 0.0 | 0.0 | 0.00 | 0.00 | 0.00 | 59 | 1011.7 |
| 20260905170027 | 93 | 328 | 0.0 | 0.0 | 0.00 | 0.00 | 0.00 | 60 | 1011.8 |
| 20260905165520 | 93 | 98 | 0.0 | 0.0 | 0.00 | 0.00 | 0.00 | 60 | 1011.8 |
| 20260905165018 | 93 | 344 | 0.0 | 0.0 | 0.00 | 0.00 | 0.00 | 60 | 1011.9 |
| 20260905164517 | 93 | 321 | 0.0 | 0.0 | 0.00 | 0.00 | 0.00 | 61 | 1011.9 |
| 20260905164017 | 92 | 108 | 0.0 | 0.0 | 0.00 | 0.00 | 0.00 | 62 | 1012.1 |
| 20260905163516 | 92 | 360 | 0.0 | 0.0 | 0.00 | 0.00 | 0.00 | 62 | 1012.2 |
| 20260905163019 | 92 | 360 | 0.0 | 0.0 | 0.00 | 0.00 | 0.00 | 60 | 1012.2 |
| 20260905162515 | 92 | 55 | 0.0 | 0.0 | 0.00 | 0.00 | 0.00 | 62 | 1012.3 |
| 20260905162017 | 91 | 100 | 0.0 | 0.0 | 0.00 | 0.00 | 0.00 | 63 | 1012.3 |
| 20260905161519 | 91 | 67 | 0.0 | 0.0 | 0.00 | 0.00 | 0.00 | 65 | 1012.3 |
| 20260905161013 | 91 | 330 | 0.0 | 0.0 | 0.00 | 0.00 | 0.00 | 66 | 1012.3 |
| 20260905160511 | 91 | 88 | 0.0 | 0.0 | 0.00 | 0.00 | 0.00 | 65 | 1012.4 |
| 20260905160024 | 90 | 53 | 0.0 | 0.0 | 0.00 | 0.00 | 0.00 | 67 | 1012.5 |
| 20260905155509 | 90 | 49 | 0.0 | 0.0 | 0.00 | 0.00 | 0.00 | 68 | 1012.5 |
| 20260905155007 | 89 | 5 | 0.0 | 0.0 | 0.00 | 0.00 | 0.00 | 68 | 1012.6 |
| 20260905154507 | 89 | 48 | 0.0 | 0.0 | 0.00 | 0.00 | 0.00 | 68 | 1012.6 |
| 20260905154007 | 89 | 51 | 0.0 | 0.0 | 0.00 | 0.00 | 0.00 | 69 | 1012.7 |
| 20260905153510 | 89 | 307 | 0.0 | 0.0 | 0.00 | 0.00 | 0.00 | 70 | 1012.8 |
| 20260905153007 | 88 | 347 | 0.0 | 0.0 | 0.00 | 0.00 | 0.00 | 72 | 1012.8 |
| 20260905152504 | 88 | 113 | 0.0 | 0.0 | 0.00 | 0.00 | 0.00 | 71 | 1012.8 |
| 20260905152004 | 87 | 86 | 0.0 | 0.0 | 0.00 | 0.00 | 0.00 | 72 | 1012.8 |
| 20260905151502 | 87 | 310 | 0.0 | 0.0 | 0.00 | 0.00 | 0.00 | 76 | 1012.9 |
| 20260905151100 | 86 | 310 | 0.0 | 0.0 | 0.00 | 0.00 | 0.00 | 74 | 1012.9 |
| 20260905150559 | 85 | 347 | 0.0 | 0.0 | 0.00 | 0.00 | 0.00 | 75 | 1013.0 |
| 20260905150059 | 85 | 327 | 0.0 | 0.0 | 0.00 | 0.00 | 0.00 | 75 | 1013.0 |
| 20260905145558 | 85 | 327 | 0.0 | 0.0 | 0.00 | 0.00 | 0.00 | 76 | 1013.0 |
| 20260905145056 | 85 | 258 | 0.0 | 0.0 | 0.00 | 0.00 | 0.00 | 76 | 1013.0 |
| 20260905144557 | 84 | 243 | 0.0 | 0.0 | 0.00 | 0.00 | 0.00 | 77 | 1013.1 |
| 20260905144056 | 84 | 336 | 0.0 | 0.0 | 0.00 | 0.00 | 0.00 | 78 | 1013.1 |
| 20260905143554 | 84 | 336 | 0.0 | 0.0 | 0.00 | 0.00 | 0.00 | 79 | 1013.2 |
| 20260905143054 | 84 | 314 | 0.0 | 0.0 | 0.00 | 0.00 | 0.00 | 79 | 1013.2 |
| 20260905142554 | 83 | 78 | 0.0 | 0.0 | 0.00 | 0.00 | 0.00 | 80 | 1013.2 |
| 20260905142051 | 83 | 78 | 0.0 | 0.0 | 0.00 | 0.00 | 0.00 | 80 | 1013.2 |
| 20260905141550 | 82 | 78 | 0.0 | 0.0 | 0.00 | 0.00 | 0.00 | 81 | 1013.2 |
| 20260905141048 | 82 | 78 | 0.0 | 0.0 | 0.00 | 0.00 | 0.00 | 82 | 1013.2 |
| 20260905140549 | 81 | 78 | 0.0 | 0.0 | 0.00 | 0.00 | 0.00 | 83 | 1013.2 |
| 20260905140045 | 81 | 78 | 0.0 | 0.0 | 0.00 | 0.00 | 0.00 | 85 | 1013.3 |
| 20260905135549 | 81 | 78 | 0.0 | 0.0 | 0.00 | 0.00 | 0.00 | 87 | 1013.4 |
| 20260905135045 | 80 | 78 | 0.0 | 0.0 | 0.00 | 0.00 | 0.00 | 86 | 1013.4 |
| 20260905134550 | 80 | 78 | 0.0 | 0.0 | 0.00 | 0.00 | 0.00 | 87 | 1013.4 |
| 20260905134044 | 79 | 78 | 0.0 | 0.0 | 0.00 | 0.00 | 0.00 | 91 | 1013.4 |
| 20260905133540 | 77 | 79 | 0.0 | 0.0 | 0.00 | 0.00 | 0.00 | 95 | 1013.5 |
| 20260905133040 | 76 | 79 | 0.0 | 0.0 | 0.00 | 0.00 | 0.00 | 96 | 1013.5 |
| 20260905132540 | 76 | 76 | 0.0 | 0.0 | 0.00 | 0.00 | 0.00 | 96 | 1013.6 |
| 20260905132040 | 76 | 66 | 0.0 | 0.0 | 0.00 | 0.00 | 0.00 | 96 | 1013.7 |
| 20260905131542 | 76 | 66 | 0.0 | 0.0 | 0.00 | 0.00 | 0.00 | 96 | 1013.7 |
| 20260905131039 | 75 | 66 | 0.0 | 0.0 | 0.00 | 0.00 | 0.00 | 96 | 1013.8 |
| 20260905130540 | 75 | 66 | 0.0 | 0.0 | 0.00 | 0.00 | 0.00 | 96 | 1013.8 |
| 20260905130038 | 75 | 66 | 0.0 | 0.0 | 0.00 | 0.00 | 0.00 | 96 | 1013.7 |
| 20260905125538 | 75 | 66 | 0.0 | 0.0 | 0.00 | 0.00 | 0.00 | 96 | 1013.7 |
| 20260905125038 | 74 | 66 | 0.0 | 0.0 | 0.00 | 0.00 | 0.00 | 96 | 1013.7 |
| 20260905124546 | 74 | 66 | 0.0 | 0.0 | 0.00 | 0.00 | 0.00 | 96 | 1013.6 |
| 20260905124037 | 74 | 66 | 0.0 | 0.0 | 0.00 | 0.00 | 0.00 | 96 | 1013.6 |
| 20260905123537 | 74 | 66 | 0.0 | 0.0 | 0.00 | 0.00 | 0.00 | 96 | 1013.6 |
| 20260905123037 | 73 | 66 | 0.0 | 0.0 | 0.00 | 0.00 | 0.00 | 96 | 1013.6 |
| 20260905122540 | 73 | 66 | 0.0 | 0.0 | 0.00 | 0.00 | 0.00 | 96 | 1013.5 |
| 20260905122036 | 73 | 66 | 0.0 | 0.0 | 0.00 | 0.00 | 0.00 | 95 | 1013.4 |
| 20260905121536 | 73 | 66 | 0.0 | 0.0 | 0.00 | 0.00 | 0.00 | 95 | 1013.4 |
| 20260905121034 | 73 | 66 | 0.0 | 0.0 | 0.00 | 0.00 | 0.00 | 95 | 1013.4 |
| 20260905120534 | 73 | 66 | 0.0 | 0.0 | 0.00 | 0.00 | 0.00 | 95 | 1013.4 |
| 20260905120036 | 73 | 66 | 0.0 | 0.0 | 0.00 | 0.00 | 0.00 | 95 | 1013.4 |